sat.trackr.live / text

‹ back to catalog

FGN-100-D2

NORAD 66299 · 2025-248G

PAYLOAD ACTIVE UNKNOWN

§ Identity

Operator
Country
TURK
Launch date
2025-11-02
Launch site
AFETR
Launch vehicle
Mass (kg)
RCS (m²)

External: N2YO · Heavens-Above · Gunter

§ Orbital elements

Epoch: 2026-09-20T06:29:24.798624Z

Period
94.67 min
Inclination
45.4026°
Eccentricity
0.0005533
Mean motion
15.21150395 rev/d
Perigee alt
498.6 km
Apogee alt
506.2 km
Semi-major
6,880.5 km
B*
1.3963e-4
RAAN
331.0239°
Arg perigee
232.5325°
Mean anomaly
127.5059°
Rev number
4,899

§ Raw data

FGN-100-D21 66299U 25248G   26263.27042591  .00002882  00000+0  13963-3 0  99962 66299  45.4026 331.0239 0005533 232.5325 127.5059 15.21150395 48995

JSON: /api/v1/satellites/66299 · /tle

For live sub-satellite position, see the globe view (requires WebGL).

§ Visibility from observer

Set your observer location to see the next 7 days of passes ≥ 10°. The values pass through the URL so the page stays shareable.

No JS? Fill the form by hand. The geolocation button needs JavaScript.